Погода в Ялтушкове

Украина / Винницкая область     48°59′32″N   27°30′01″E
темп.,
°C
ветер,
м/с
пор.,
м/с
влажн.,
%
обл.,
%
осадки,
мм/ч
давл.,
гПа
погр.,
м
15 августа, пн
пн1500:00+20св396778 0.0 1009200
03:00+18всв387181 0.1 1009141
06:00+19всв41169100 0.0 1008275
09:00+22в596299 0.0 1008432
12:00+25всв574797 0.0 1008754
15:00+29в5832100 0.0 10061760
18:00+28всв6936100 0.0 1006826
21:00+22всв51152100 0.0 1007262
16 августа, вт
вт1600:00+19всв41177100 0.6 1007195
03:00+18св2579100 0.7 100798
06:00+17ссв3477100 0.0 100763
09:00+19с1277100 0.8 100795
12:00+19зсз347695 0.1 1008197
15:00+24зсз445485 0.2 1008876
18:00+24з3456100 0.1 1007911
21:00+20сз0181100 0.9 100826
17 августа, ср
ср1700:00+18вюв2595100 1.8 1009144
03:00+18ююз1291100 1.9 100830
06:00+18вюв009496 0.4 100811
09:00+19юз1189100 1.1 1008245
12:00+22ссз237570 1.3 1009880
15:00+21ссз457997 4.1 1009587
18:00+22ссз557370 0.4 1010868
21:00+18сз35895 0.4 101084
18 августа, чт
чт1800:00+17ссз35965 0.0 1010107
03:00+16ссз389826 0.0 1010211
06:00+16ссз389670 0.0 1010243
09:00+20ссз46775 0.0 1011472
12:00+26ссз55555 0.0 10101158
15:00+28с5746100 0.3 10102222
18:00+22всв697899 0.6 1011263
21:00+21с337712 1.3 101153
19 августа, пт
пт1900:00+19ссз33810 0.0 101124
03:00+19с33861 0.0 101147
06:00+18ссв23882 0.0 101130
09:00+22ссв23710 0.0 1011275
12:00+28ссз22510 0.0 10111239
15:00+30с33420 0.0 10111884
18:00+29св334398 0.0 10111893
21:00+23всв22604 0.0 101116